Ignacio, CO

5:13 AM MST on December 10, 2016 (GMT -0700)
Durango-La Plata County

Weather History for KDRO - November, 2010

Change the Weather History Date:

Wednesday, November 24, 2010

  Actual Average Record
Temperature  
Mean Temperature 26 °F 32 °F  
Max Temperature 33 °F 45 °F 64 °F (1981)
Min Temperature 18 °F 20 °F 5 °F (1979)
Degree Days  
Heating Degree Days 39 33  
Month to date heating degree days 682  
Since 1 July heating degree days 1470  
Cooling Degree Days 0 0  
Month to date cooling degree days 0  
Year to date cooling degree days 243  
Moisture  
Dew Point 17 °F    
Average Humidity 64    
Maximum Humidity 86    
Minimum Humidity 38    
Precipitation  
Precipitation 0.00 in 0.05 in 0.73 in (1980)
Month to date precipitation 1.41  
Year to date precipitation 14.63  
Sea Level Pressure  
Sea Level Pressure 29.79 in    
Wind  
Wind Speed 12 mph (WSW)    
Max Wind Speed 24 mph    
Max Gust Speed 32 mph    
Visibility 8 miles    
Events Fog , Snow    
T = Trace of Precipitation, MM = Missing Value Source: NWS Daily Summary

Daily Weather History Graph

Daily Weather History Graph

Search for Another Location

Airport or City:

Trip Planner

Search our weather history database for the weather conditions in past years. The results will help you decide how hot, cold, wet, or windy it might be!

Date:

Astronomy

Nov. 24, 2010 Rise Set
Actual Time 6:59 AM MST 4:56 PM MST
Civil Twilight 6:30 AM MST 5:24 PM MST
Nautical Twilight 5:59 AM MST 5:56 PM MST
Astronomical Twilight 5:27 AM MST 6:27 PM MST
Moon 7:47 PM MST (11/24) 9:47 AM MST (11/24)
Length of Visible Light 10h 53m
Length of Day
9h 56m
Waning Gibbous, 90% of the Moon is Illuminated
Nov 24
Waning Gibbous
Nov 28
Last Quarter
Dec 5
New
Dec 13
First Quarter
Dec 21
Full

Hourly Weather History & Observations

Time (MST) Temp. Windchill Dew Point Humidity Pressure Visibility Wind Dir Wind Speed Gust Speed Precip Events Conditions
12:53 AM 30.9 °F - 16.0 °F 54% 29.76 in 10.0 mi Calm Calm - N/A   Overcast
1:53 AM 30.0 °F 22.4 °F 16.0 °F 56% 29.75 in 10.0 mi WSW 8.1 mph - N/A   Scattered Clouds
2:53 AM 30.0 °F 26.5 °F 16.0 °F 56% 29.73 in 10.0 mi West 3.5 mph - N/A   Overcast
3:53 AM 32.0 °F 22.5 °F 15.1 °F 50% 29.73 in 10.0 mi WSW 12.7 mph 19.6 mph N/A   Overcast
5:53 AM 30.9 °F 18.1 °F 15.1 °F 52% 29.76 in 10.0 mi WSW 21.9 mph 25.3 mph N/A   Overcast
6:53 AM 28.9 °F 17.3 °F 18.0 °F 64% 29.80 in 9.0 mi West 16.1 mph 25.3 mph 0.00 in Snow Light Snow
7:53 AM 28.9 °F 17.3 °F 18.0 °F 64% 29.81 in 9.0 mi WSW 16.1 mph 21.9 mph 0.00 in Snow Light Snow
8:53 AM 30.0 °F 19.5 °F 19.0 °F 64% 29.81 in 9.0 mi WSW 13.8 mph 24.2 mph 0.00 in Snow Light Snow
9:10 AM 30.2 °F 18.9 °F 21.2 °F 69% 29.76 in 9.0 mi WSW 16.1 mph 24.2 mph 0.00 in Snow Light Snow
9:25 AM 30.2 °F 18.9 °F 19.4 °F 64% 29.75 in 9.0 mi WSW 16.1 mph - 0.00 in   Overcast
9:53 AM 30.9 °F 20.7 °F 19.9 °F 64% 29.81 in 10.0 mi WSW 13.8 mph 21.9 mph 0.00 in   Overcast
10:26 AM 32.0 °F 20.8 °F 21.2 °F 64% 29.75 in 10.0 mi WSW 17.3 mph 27.6 mph N/A   Overcast
10:53 AM 32.0 °F 20.8 °F 21.0 °F 64% 29.80 in 10.0 mi WSW 17.3 mph 24.2 mph N/A   Overcast
11:53 AM 33.1 °F 21.9 °F 21.0 °F 61% 29.77 in 10.0 mi SW 18.4 mph 28.8 mph 0.00 in Snow Light Snow
12:27 PM 30.2 °F 16.5 °F 21.2 °F 69% 29.73 in 1.8 mi WNW 24.2 mph 32.2 mph 0.00 in Snow Light Snow
12:29 PM 30.2 °F 17.1 °F 23.0 °F 75% 29.73 in 0.8 mi WNW 21.9 mph 32.2 mph 0.00 in Snow Light Snow
12:32 PM 28.4 °F 15.8 °F 24.8 °F 86% 29.73 in 0.5 mi WNW 18.4 mph 32.2 mph 0.00 in Fog , Snow Snow
12:41 PM 28.4 °F 17.0 °F 24.8 °F 86% 29.73 in 0.8 mi WNW 15.0 mph 26.5 mph 0.00 in Snow Light Snow
12:46 PM 28.4 °F 15.4 °F 23.0 °F 80% 29.73 in 1.0 mi WNW 19.6 mph 24.2 mph 0.00 in Snow Light Snow
12:48 PM 28.4 °F 15.4 °F 23.0 °F 80% 29.73 in 1.5 mi WNW 19.6 mph 26.5 mph 0.00 in Snow Light Snow
12:50 PM 28.4 °F 15.4 °F 21.2 °F 74% 29.73 in 3.0 mi WNW 19.6 mph 27.6 mph 0.00 in Snow Light Snow
12:53 PM 28.9 °F 16.9 °F 21.0 °F 72% 29.80 in 5.0 mi WNW 17.3 mph 27.6 mph 0.00 in Snow Light Snow
1:02 PM 28.4 °F 15.4 °F 19.4 °F 69% 29.74 in 5.0 mi West 19.6 mph 29.9 mph 0.00 in Snow Light Snow
1:22 PM 28.4 °F 17.5 °F 21.2 °F 74% 29.74 in 6.0 mi West 13.8 mph 27.6 mph 0.00 in Snow Light Snow
1:53 PM 28.0 °F 15.7 °F 18.0 °F 66% 29.81 in 10.0 mi West 17.3 mph 25.3 mph 0.00 in   Overcast
2:53 PM 28.0 °F 16.5 °F 19.9 °F 72% 29.81 in 10.0 mi WSW 15.0 mph - N/A   Overcast
3:53 PM 28.9 °F 18.6 °F 16.0 °F 58% 29.78 in 10.0 mi WSW 12.7 mph - N/A   Overcast
4:53 PM 27.0 °F 15.6 °F 16.0 °F 63% 29.82 in 10.0 mi WSW 13.8 mph - N/A   Overcast
5:53 PM 26.1 °F 16.2 °F 18.0 °F 71% 29.83 in 10.0 mi SW 10.4 mph - N/A   Overcast
6:53 PM 25.0 °F 13.6 °F 15.1 °F 66% 29.86 in 10.0 mi SW 12.7 mph - N/A   Overcast
7:53 PM 25.0 °F 13.6 °F 10.9 °F 55% 29.86 in 10.0 mi SW 12.7 mph - N/A   Overcast
8:53 PM 24.1 °F 12.0 °F 6.1 °F 46% 29.87 in 10.0 mi WSW 13.8 mph - N/A   Overcast
9:53 PM 21.9 °F 10.4 °F 1.9 °F 42% 29.89 in 10.0 mi WSW 11.5 mph - N/A   Scattered Clouds
10:53 PM 19.9 °F 10.1 °F -2.0 °F 38% 29.91 in 10.0 mi WSW 8.1 mph - N/A   Clear
11:53 PM 18.0 °F 9.8 °F -2.9 °F 40% 29.91 in 10.0 mi WSW 5.8 mph - N/A   Clear